Regional Weather Roundup
Issued by NWS

Home | Current Version | Previous Version | Text Only | Print | Product List | Glossary On
Versions: 1 2 3 4 5 6 7 8 9 10 11 12 13 14 15 16 17 18 19 20 21 22 23 24 25 26 27 28 29 30 31 32 33 34 35 36 37 38 39 40 41 42 43 44 45 46 47 48 49 50
000
ASUS43 KFSD 222210
RWRSD

WEATHER ROUNDUP FOR SOUTH DAKOTA
NATIONAL WEATHER SERVICE SIOUX FALLS SD
500 PM CDT MON MAY 22 2017

NOTE: "FAIR" INDICATES FEW OR NO CLOUDS BELOW 12,000 FEET WITH NO
SIGNIFICANT WEATHER AND/OR OBSTRUCTIONS TO VISIBILITY.


SDZ001>005-009-010-012>017-222300-
NORTHWEST AND NORTH CENTRAL SOUTH DAKOTA

CITY           SKY/WX    TMP DP  RH WIND       PRES   REMARKS
BUFFALO          N/A     61  39  44 N18G25    30.01R
FAITH            N/A     62  35  36 N22G31    29.99F
MOBRIDGE       CLOUDY    61  37  41 N22G28    29.94R
$$

SDZ012>016-024>037-041>051-057-063-072>074-222300-
SOUTHWEST AND SOUTH CENTRAL SOUTH DAKOTA

CITY           SKY/WX    TMP DP  RH WIND       PRES   REMARKS
RAPID CTY ARPT LGT RAIN  53  44  71 NW26G32   30.07R
PIERRE         MOSUNNY   62  39  42 N16       29.94F
CUSTER         LGT RAIN  39  33  79 N14G25    30.10R
ELLSWORTH AFB  PTSUNNY   52  45  76 NW24G30   30.06
PHILIP         CLOUDY    60  40  47 N8        30.00R
PINE RIDGE     CLOUDY    53  47  79 W8        30.05S
SPEARFISH      FAIR      50  43  76 W14       30.12F
WINNER         FAIR      59  48  67 N22G30    29.96R
$$

SDZ004>011-016>023-039-040-222300-
NORTHEAST SOUTH DAKOTA

CITY           SKY/WX    TMP DP  RH WIND       PRES   REMARKS
ABERDEEN       CLOUDY    59  36  42 N16       29.91R
WATERTOWN      PTSUNNY   59  40  49 NW15      29.86F
BROOKINGS      RAIN      52  48  87 N12       29.88S
SISSETON         N/A     60  43  53 N17       29.86R
$$

SDZ017-020-022-023-036>040-048>070-222300-
SOUTHEAST SOUTH DAKOTA

CITY           SKY/WX    TMP DP  RH WIND       PRES   REMARKS
SIOUX FALLS    CLOUDY    61  49  64 NW16G23   29.85F
HURON          LGT RAIN  50  48  93 CALM      29.92S
CHAMBERLAIN    PTSUNNY   59  45  60 N12       29.95R
MITCHELL       CLOUDY    57  46  66 N15       29.92R
YANKTON          N/A     64  48  56 NW10      29.87F
$$

ABBREVIATIONS USED IN REMARKS
   TC - TEMPERATURE IN CELSIUS
  WCI - WIND CHILL INDEX
   HX - HEAT INDEX
  VSB - VISIBILITY





USA.gov is the U.S. government's official web portal to all federal, state and local government web resources and services.